Snowfall_Accumulation
0.0 0.0 0.0 0.0 0.0 0.0 0.0 0.0 10.2 0.0 0.0 5.3 6.8 7.0 2.1 0.0 0.0 0.0 0.0 0.0 0.0 0.0 0.0 0.0 0.0 0.0 0.0 0.0 0.0 0.0 0.0 0.6 1.2 0.5 0.0 0.0 0.0 0.0 0.0 3.4 1.3 2.8 2.6 2.0
0.0 0.0 0.0 0.0 0.0 0.0 0.0 0.0 1.7 0.0 0.0 7.3 5.1 0.0 0.0 0.0 0.0 0.0 0.0 0.0 0.0 0.0 0.0 0.0 0.0 0.0 0.0 0.0 0.0 0.0 0.0 1.2 1.0 1.5 0.4 0.0 0.8 0.1 0.1 1.4 2.4 2.6 2.0 0.3
0.0 0.0 0.0 0.0 0.0 0.0 0.0 0.0 7.7 0.0 0.0 0.0 0.0 0.0 0.4 0.0 0.0 0.0 0.0 0.0 0.0 0.0 0.0 0.0 0.0 0.0 0.0 0.0 0.0 0.0 0.0 1.6 1.0 1.0 2.4 3.5 3.2 0.3 0.7 2.8 6.0 0.3 0.2 0.0
0.0 0.0 0.0 0.0 0.0 0.0 0.0 0.0 2.0 0.0 6.9 1.0 0.0 0.0 0.0 0.0 0.0 0.0 0.0 0.0 0.0 0.0 0.0 0.0 0.0 0.0 0.0 0.0 0.0 0.0 0.0 2.3 0.5 1.0 1.6 5.6 3.1 0.9 0.9 3.6 0.7 2.2 0.1 0.3
0.0 0.0 0.0 0.0 0.0 0.0 0.0 0.0 0.0 0.0 0.0 0.0 0.0 0.0 0.0 0.0 0.0 0.0 0.0 0.0 0.0 0.0 0.0 0.0 0.0 0.0 0.0 0.0 0.0 0.0 0.0 3.6 3.2 3.3 1.9 3.4 2.6 0.4 0.7 0.5 0.1 0.0 0.0 0.0
0.0 0.0 0.0 0.0 0.0 0.0 0.0 0.0 0.0 0.0 0.0 0.0 0.0 0.0 0.0 0.1 0.0 0.0 0.0 0.0 0.0 0.0 0.0 0.0 0.0 0.0 0.0 0.0 0.0 0.0 1.7 4.5 6.3 4.8 0.6 1.4 1.8 0.6 0.2 0.0 0.0 0.0 0.3 0.0
0.0 0.0 0.0 0.0 0.0 0.0 0.0 0.0 0.0 0.0 0.4 0.0 0.0 0.0 0.0 0.0 0.0 0.1 0.0 0.0 0.0 0.0 0.0 0.0 0.0 0.0 0.0 0.0 0.0 0.0 0.0 4.0 7.4 8.5 4.0 4.3 0.0 0.0 0.0 0.0 0.1 0.2 0.1 0.0
0.0 0.0 0.0 0.0 0.0 0.0 0.0 0.0 0.0 0.0 0.9 0.0 0.0 0.0 0.0 0.0 0.0 0.0 0.0 0.0 0.0 0.0 0.0 0.0 0.0 0.0 0.0 0.0 0.0 0.0 0.0 0.9 4.0 4.2 2.8 0.0 0.0 0.0 0.0 0.0 0.2 0.0 0.0 0.0
0.0 0.0 0.0 0.0 0.0 0.0 0.0 0.0 0.0 0.0 0.7 0.2 0.0 0.0 0.0 0.3 0.3 0.3 0.0 0.0 0.0 0.0 0.0 0.0 1.0 0.0 0.0 0.0 0.0 0.0 0.0 0.0 1.8 1.3 2.2 0.7 0.0 0.0 0.0 0.0 0.4 0.0 0.0 0.0
0.0 0.0 0.0 0.0 0.0 0.0 0.0 0.0 0.0 0.0 2.0 0.5 0.0 0.2 0.3 0.0 0.3 0.3 0.0 0.0 0.0 0.0 0.1 0.8 0.8 0.0 0.0 0.0 0.0 0.1 0.4 0.4 1.7 1.2 1.6 0.0 0.0 0.0 0.0 0.1 0.2 0.0 0.0 0.0
0.0 0.0 0.0 0.0 0.0 0.0 0.0 0.0 0.0 0.0 2.1 0.1 0.0 0.0 0.1 0.2 0.0 0.7 0.2 0.0 0.0 0.1 0.6 0.5 0.1 0.2 0.1 0.0 0.0 0.0 0.0 0.2 0.4 1.0 1.8 0.2 0.0 0.0 0.1 0.0 0.0 0.0 0.0 0.0
0.0 0.0 0.0 0.0 0.0 0.0 0.0 0.0 0.0 0.0 0.3 1.5 0.0 0.0 0.0 0.0 0.0 0.0 0.1 0.0 0.1 0.0 1.3 1.4 0.3 0.4 0.2 0.0 0.2 0.0 0.0 0.0 0.2 0.1 0.1 0.0 0.0 0.0 0.0 0.0 0.0 0.0 0.0 0.0
0.0 0.0 0.0 0.0 0.0 0.0 0.0 0.0 0.0 0.0 4.3 2.2 1.4 0.4 0.0 0.0 0.0 0.0 0.5 0.1 0.0 0.0 0.1 0.4 0.5 0.7 0.1 0.4 0.1 0.0 0.0 0.0 0.1 0.0 0.0 0.0 0.0 0.0 0.0 0.0 0.0 0.0 0.0 0.0
0.0 0.0 0.0 0.0 0.0 0.0 0.0 0.0 0.0 0.0 2.0 5.7 0.6 0.0 0.0 0.0 0.0 0.0 0.0 0.0 0.0 0.0 0.8 1.2 1.5 1.3 0.0 0.0 0.1 0.0 0.0 0.0 0.0 0.0 0.0 0.0 0.0 0.0 0.0 0.0 0.0 0.0 0.0 0.0
0.0 0.0 0.0 0.0 0.0 0.0 0.0 0.0 0.0 0.0 1.1 6.3 2.1 0.1 0.1 0.0 0.0 0.0 0.0 0.0 0.0 0.4 1.3 2.4 2.4 0.5 0.7 0.2 0.1 0.0 0.0 0.0 0.0 0.0 0.0 0.0 0.0 0.0 0.0 0.0 0.0 0.0 0.0 0.0
0.0 0.0 0.0 0.0 0.0 0.0 0.0 3.5 0.0 0.0 0.0 5.1 9.0 0.0 0.0 0.0 0.0 0.0 0.0 0.0 0.0 1.6 1.3 3.1 0.2 0.0 0.8 1.6 0.2 0.0 0.0 0.0 0.0 0.0 0.0 0.0 0.0 0.0 0.0 0.0 0.0 0.0 0.0 0.0
0.0 0.0 0.0 0.0 0.0 0.0 0.6 3.6 0.0 0.0 0.0 7.5 19.8 8.4 0.6 0.0 0.0 0.0 0.0 0.0 0.3 4.3 4.5 1.6 2.3 1.8 2.9 2.6 0.5 0.0 0.0 0.0 0.0 0.0 0.0 0.0 0.0 0.0 0.0 0.0 0.0 0.0 0.0 0.0
0.0 0.0 0.0 0.0 0.0 0.0 0.2 0.0 0.0 0.0 4.4 8.1 25.1 15.3 8.2 0.0 0.4 1.3 0.0 0.0 0.6 7.4 3.0 0.7 1.4 1.2 4.6 4.7 0.0 0.0 0.0 0.0 0.0 0.0 0.0 0.0 0.0 0.0 0.0 0.0 0.0 0.0 0.0 0.0
0.0 0.0 0.0 0.0 0.0 0.2 0.0 0.0 0.0 0.0 1.5 25.8 15.3 11.6 8.9 2.6 0.6 1.6 1.9 0.1 6.3 1.1 3.7 0.1 0.5 2.7 6.1 0.4 0.1 0.1 0.0 0.0 0.0 0.0 0.0 0.0 0.0 0.0 0.0 0.0 0.0 0.0 0.0 0.0
0.0 0.0 3.1 11.2 0.3 0.0 0.0 0.0 5.4 18.4 22.4 16.5 11.9 5.5 5.6 4.2 7.1 4.1 5.5 8.3 8.5 10.7 2.9 0.0 6.1 0.9 0.4 0.1 0.5 0.2 0.1 0.0 0.0 4.2 2.9 1.0 1.6 0.3 0.3 0.0 0.1 0.0 0.1 0.1
2.8 13.4 15.0 2.7 0.0 1.5 0.1 31.0 32.4 24.5 20.6 7.9 7.0 4.1 6.3 2.3 8.2 6.9 6.3 13.4 11.3 12.3 4.8 3.4 4.8 5.2 1.3 0.0 0.3 0.0 0.1 0.2 0.0 0.0 0.5 1.8 3.7 3.9 2.0 0.6 3.2 1.5 2.4 2.9
3.5 2.8 4.6 4.2 25.3 34.4 35.1 29.5 12.1 6.3 4.9 8.0 6.0 2.2 2.3 5.3 3.8 9.3 12.7 12.5 11.2 8.5 3.3 9.1 5.8 3.3 1.5 1.9 0.6 0.3 0.1 0.0 0.1 0.2 2.2 0.9 1.0 1.5 2.0 2.8 3.2 2.9 3.1 2.8
5.2 15.0 30.0 29.6 29.8 33.6 24.0 12.3 7.8 7.0 5.0 5.8 3.8 4.5 5.1 7.0 10.9 17.7 14.9 14.1 8.4 5.0 9.0 5.1 3.0 0.9 0.0 0.5 1.7 1.6 1.6 0.3 1.3 2.0 0.0 0.7 0.6 0.4 0.8 1.2 0.1 0.5 0.9 1.4
12.3 27.0 26.3 19.6 17.3 9.6 6.6 3.6 3.0 2.8 4.2 5.1 5.1 6.1 8.8 7.1 13.9 13.1 15.3 7.9 5.5 11.9 8.1 4.3 2.0 1.6 0.9 0.3 0.5 0.9 1.1 1.4 1.9 4.2 4.4 2.8 1.9 0.9 0.7 1.5 1.9 2.0 1.8 1.6
28.3 23.0 16.5 9.4 5.2 3.2 3.6 3.0 3.3 4.0 6.8 9.4 10.3 10.0 9.6 12.5 16.5 11.4 6.1 10.7 9.7 7.8 5.4 4.2 3.7 3.5 3.3 3.1 2.6 1.8 2.0 2.6 3.4 3.2 4.3 5.3 3.0 1.9 1.4 2.2 2.2 2.2 2.3 1.6
26.0 20.3 8.8 3.1 2.0 2.9 2.0 2.6 3.5 4.0 5.7 7.7 12.5 13.1 13.7 12.1 11.0 11.3 7.1 7.7 6.1 6.0 6.2 6.1 5.3 5.0 4.5 5.0 4.7 4.3 4.3 4.7 5.3 5.7 6.7 6.2 6.4 6.9 6.5 4.5 3.7 3.3 3.7 2.7
26.0 9.1 3.7 3.3 2.2 2.2 2.6 3.1 3.7 4.7 6.0 7.9 9.6 14.1 8.7 9.1 10.9 6.9 5.0 6.5 6.7 6.2 4.6 4.1 4.3 4.0 4.4 4.6 4.2 4.2 4.5 4.5 5.0 6.1 7.3 8.4 9.1 8.6 7.0 7.0 8.4 7.5 7.1 6.4